Chino, CA

5:44 PM PDT on May 22, 2017 (GMT -0700)
Chino

Weather History for KCNO - November, 2012

Change the Weather History Date:

Tuesday, November 13, 2012

  Actual Average Record
Temperature  
Mean Temperature 60 °F -  
Max Temperature 84 °F 70 °F 93 °F (2013)
Min Temperature 36 °F 42 °F 28 °F (2000)
Degree Days  
Heating Degree Days 5    
Growing Degree Days 10 (Base 50)    
Moisture  
Dew Point 25 °F    
Average Humidity 37    
Maximum Humidity 73    
Minimum Humidity 7    
Precipitation  
Precipitation 0.00 in - - ()
Sea Level Pressure  
Sea Level Pressure 30.08 in    
Wind  
Wind Speed 3 mph (East)    
Max Wind Speed 13 mph    
Max Gust Speed -    
Visibility 8 miles    
Events      
Averages and records for this station are not official NWS values.
T = Trace of Precipitation, MM = Missing Value Source: NWS Daily Summary

Daily Weather History Graph

Daily Weather History Graph

Search for Another Location

Airport or City:

Trip Planner

Search our weather history database for the weather conditions in past years. The results will help you decide how hot, cold, wet, or windy it might be!

Date:

Astronomy

Nov. 13, 2012 Rise Set
Actual Time 6:21 AM PST 4:47 PM PST
Civil Twilight 5:55 AM PST 5:14 PM PST
Nautical Twilight 5:25 AM PST 5:44 PM PST
Astronomical Twilight 4:55 AM PST 6:14 PM PST
Moon 6:04 AM PST (11/13) 4:46 PM PST (11/13)
Length of Visible Light 11h 19m
Length of Day
10h 26m
Waning Crescent, 0% of the Moon is Illuminated
Nov 13
Waning Crescent
Nov 13
New
Nov 20
First Quarter
Nov 28
Full
Dec 6
Last Quarter

Hourly Weather History & Observations

Time (PST) Temp. Windchill Dew Point Humidity Pressure Visibility Wind Dir Wind Speed Gust Speed Precip Events Conditions
12:53 AM 39.0 °F - 28.9 °F 67% 30.14 in 6.0 mi Calm Calm - N/A   Haze
1:53 AM 37.9 °F 35.5 °F 28.9 °F 70% 30.14 in 6.0 mi NNW 3.5 mph - N/A   Haze
2:53 AM 37.9 °F - 28.0 °F 68% 30.13 in 7.0 mi Calm Calm - N/A   Clear
3:53 AM 45.0 °F 41.8 °F 27.0 °F 49% 30.12 in 7.0 mi NE 5.8 mph - N/A   Clear
4:53 AM 37.0 °F - 26.1 °F 65% 30.12 in 6.0 mi Calm Calm - N/A   Haze
5:53 AM 36.0 °F - 28.0 °F 73% 30.12 in 5.0 mi Calm Calm - N/A   Haze
6:53 AM 46.0 °F 44.8 °F 25.0 °F 44% 30.13 in 10.0 mi NE 3.5 mph - N/A   Clear
7:53 AM 53.1 °F - 36.0 °F 52% 30.14 in 10.0 mi Calm Calm - N/A   Clear
8:53 AM 63.0 °F - 28.9 °F 28% 30.13 in 10.0 mi Calm Calm - N/A   Clear
9:53 AM 72.0 °F - 21.9 °F 15% 30.11 in 10.0 mi ESE 3.5 mph - N/A   Clear
10:31 AM 77.0 °F - 19.4 °F 12% 30.10 in 7.0 mi ESE 8.1 mph - N/A   Clear
10:53 AM 78.1 °F - 12.9 °F 8% 30.08 in 10.0 mi SE 9.2 mph - N/A   Clear
11:53 AM 81.0 °F - 14.0 °F 8% 30.06 in 10.0 mi ESE 12.7 mph - N/A   Clear
12:53 PM 82.9 °F - 16.0 °F 8% 30.04 in 10.0 mi ESE 6.9 mph - N/A   Clear
1:53 PM 84.0 °F - 12.9 °F 7% 30.02 in 10.0 mi Variable 3.5 mph - N/A   Clear
2:53 PM 82.0 °F - 19.9 °F 10% 30.01 in 10.0 mi East 4.6 mph - N/A   Clear
3:53 PM 79.0 °F - 21.9 °F 12% 30.01 in 10.0 mi East 3.5 mph - N/A   Clear
4:53 PM 73.9 °F - 23.0 °F 15% 30.01 in 10.0 mi Calm Calm - N/A   Clear
5:53 PM 61.0 °F - 30.9 °F 32% 30.03 in 10.0 mi Calm Calm - N/A   Clear
6:53 PM 52.0 °F - 32.0 °F 47% 30.04 in 10.0 mi Calm Calm - N/A   Clear
7:53 PM 54.0 °F - 26.1 °F 34% 30.04 in 10.0 mi Calm Calm - N/A   Clear
8:53 PM 45.0 °F 43.5 °F 32.0 °F 60% 30.05 in 6.0 mi North 3.5 mph - N/A   Haze
9:53 PM 54.0 °F - 21.9 °F 29% 30.05 in 7.0 mi ENE 3.5 mph - N/A   Clear
10:53 PM 50.0 °F - 28.0 °F 43% 30.06 in 6.0 mi ENE 4.6 mph - N/A   Haze
11:53 PM 45.0 °F - 30.9 °F 58% 30.06 in 6.0 mi Calm Calm - N/A   Haze